Location: Mat�lon
(46.2791°N, 7.1028°E)
Time: 11:30:05
(UTC+00:00)

Cosmos 1975 - Pass Details

Date: 18 September 2020
Orbit: 540 x 562 km, 82.5° (Epoch: 24 October)

Event Time Altitude Azimuth Distance (km) Brightness Sun altitude
Rises 18:43:51 0° 201° (SSW) 2,742 6.5 -12.3°
Reaches altitude 10° 18:46:04 10° 208° (SSW) 1,851 5.7 -12.7°
Maximum altitude 18:50:01 48° 283° (WNW) 746 4.0 -13.3°
Drops below altitude 10° 18:54:00 10° 358° (N) 1,862 5.8 -14.0°
Sets 18:56:15 0° 4° (N) 2,760 6.6 -14.4°
